TITAN 3D DEB

Satellite information

Favourite Embed

Satellite Type and Status

DEBRISIN ORBIT

Key statistics

Satellite TITAN 3D DEB at a glance.

Uptime

19380

Days in orbit

Revolutions

≈ 12.6

Per day

Orbit

SSO

Sun Synchronous Orbit

Inclination

95.5

Latest

Satellite identification and parameters

Extended collection of information and parameters for TITAN 3D DEB.

Object identification

Identified? True

Debris? True

Object name: TITAN 3D DEB

International designator: 1972-079E

Object number (NORAD): 6824

Object ID (CCSDS): 6824

Country: UNITED STATES OF AMERICA (US)

Current information (Y/N): Y

RCS size: SMALL

Orbital parameters

Period: 114.607 minutes

Inclination: 95.5161 deg

SMA: 7815.689 km

Apoapsis: 1443.179 km

Periapsis: 1431.929 km

RAAN: 71.1937 deg

Eccentricy: 0.00071973

Argument of periapsis: 145.227 deg

Mean anomaly: 271.6341 deg

Mean motion: 12.56469166 rev/day

Mean motion (dot): 0.00000044 rev/day2

B* drag term: 0.00033989126 1/REarth

Two-line elements (TLE)

Creation date: Oct. 28, 2025, 7:11 p.m.

Reference frame: TEME

Reference center: EARTH

Epoch: Oct. 28, 2025, 8:22 a.m. UTC

TLE line 0: 0 TITAN 3D DEB

TLE line 1: 1 06824U 72079E 25301.34861961 .00000044 00000-0 33989-3 0 9997

TLE line 2: 2 06824 95.5161 71.1937 0007197 145.2270 271.6341 12.56469166431741

Live tracking on map

Real-time ground track for satellite TITAN 3D DEB.

In-orbit conjunctions

A list of the most updated potential collisions computed for object TITAN 3D DEB.

Target Orbit TCA Probability of collision Miss distance Type
COSMOS 828 LEO 2025-10-14 21:40:01 0.0002953137 66.0 (m) PAYLOAD

Associated space launch

Large reconnaissance satellite equipped with four return capsules.

TITAN 3D DEB was lifted into orbit during the mission ‘Titan IIID | KH-9 4’, on board a Titan IIID space rocket.

The launch took place on Oct. 10, 1972, 6:03 p.m. from Space Launch Complex 4E.

For more information about the launch, click the button.

Launch to space Titan IIID | KH-9 4
Titan IIID | KH-9 4

Agency: N/A

Status: Launch Successful

Launch date: Oct. 10, 1972, 6:03 p.m. UTC

Rocket: Titan IIID

Launch pad: Space Launch Complex 4E

Location: Vandenberg SFB, CA, USA

...

Latest news about this satellite

There are no fresh news available about this satellite. Check back as we update our databases every day.


Newsletter sign-up

Weekly statistics, charts and insights to help you stay on top of the space industry.